[[{"header":{"parameterUnit":"m.s-1","parameterCategory":1,"la1":30.2991,"la2":30.254,"lo1":-89.0895,"lo2":-89.0444,"dy":0.0017,"dx":0.0017,"nx":28,"ny":28,"refTime":"2023-08-31T03:00:00:Z","depth":0,"parameterNumber":2,"parameterNumberName":"U-component_of_WINDS"},"data":[0,0,0,0,0,0,0,0,0,0,0,0,0,0,0,0,0,0,0,0,0,0,0,0,0,0,0,0,0,0,0,0,0,0,0,0,0,0,0,0,0,0,0,0,0,0,0,0,0,0,0,0,0,0,0,0,0,0,-0.9654,-0.9655,0,-0.9767,-0.9768,-0.9769,-0.9741,-0.9739,-0.9736,-0.9734,-0.9855,-0.986,-0.9866,0,0,0,0,0,0,0,0,0,0,0,0,0,-0.9417,-0.9422,-0.9653,-0.9655,-0.9656,-0.9766,-0.9768,-0.977,-0.9741,-0.9738,-0.9736,-0.9733,-0.9854,-0.986,-0.9866,0,0,0,0,0,0,0,0,0,0,0,0,0,-0.9524,-0.9423,-0.9653,-0.9655,-0.9657,-0.9766,-0.9768,-0.977,-0.9742,-0.9738,-0.9735,-0.9732,-0.9851,-0.9859,-0.9867,-0.9983,0,0,-0.9891,-0.9895,0,0,0,0,0,0,0,0,-0.9518,-0.9533,-0.9654,-0.9655,-0.9657,-0.9736,-0.9729,-0.9842,-0.9743,-0.971,-0.9734,-0.973,-0.9819,-0.9829,-0.9858,-0.9989,-0.9994,-0.9892,-0.9897,-0.99,-0.9903,0,0,0,0,0,0,0,-0.9511,-0.9528,-0.9698,-0.9655,-0.9658,-0.9652,-0.9663,-0.975,-0.9782,-0.9712,-0.971,-0.9724,-0.9819,-0.985,-0.986,-0.9996,-0.9892,-0.9899,-0.9904,-0.9907,-1.0228,-1.0231,0,0,0,0,0,0,-0.9501,-0.9522,-0.9695,-0.9702,-0.9578,-0.9659,-0.9672,-0.9714,-0.9781,-0.9787,-0.9727,-0.9722,-0.9838,-0.9851,-0.9865,-1.0006,-0.99,-0.9908,-0.9912,-1.0224,-1.0229,-1.0233,0,0,0,0,0,0,-0.9496,-0.9517,-0.969,-0.9611,-0.9633,-0.9666,-0.9714,-0.9718,-0.9749,-0.9791,-0.9797,-0.9753,-0.9836,-0.9853,-0.9954,-1.0009,-0.9911,-0.9918,-1.022,-1.0226,-1.0231,-1.0288,0,0,0,0,0,0,-0.949,-0.9515,-0.9559,-0.9612,-0.9637,-0.9776,-0.9718,-0.9723,-0.9762,-0.9758,-0.9817,-0.9824,-0.9835,-0.9942,-0.9961,-1.0019,-0.9925,-1.0215,-1.0222,-1.0229,-1.0281,-1.0295,-1.0306,0,0,0,0,0,-0.9481,-0.9572,-0.9561,-0.9582,-0.9692,-0.978,-0.9794,-0.9803,-0.9767,-0.9812,-0.9839,-0.9822,-0.9999,-0.9952,-0.9974,-1.0035,-1.0212,-1.022,-1.0228,-1.0276,-1.0292,-1.0306,0,0,0,0,0,0,-0.9526,-0.9579,-0.9568,-0.9678,-0.9724,-0.9774,-0.9831,-0.982,-0.9879,-0.9872,-0.9882,-0.9896,-0.9999,-1.0026,-0.9973,-1.015,-1.01,-1.0114,-1.0129,-1.0145,-1.0157,-1.015,-0.9931,0,0,0,0,0,-0.9548,-0.9613,-0.9656,-0.975,-0.9773,-0.9798,-0.9837,-0.9839,-0.9888,-0.9908,-0.9943,-0.9992,-1.0059,-1.0103,-1.0167,-1.0284,-1.0298,-1.0336,-1.0349,-1.0359,-1.0371,-1.0436,-1.0454,-1.026,-1.026,-1.026,0,0,-0.9596,-0.9633,-0.9674,-0.9759,-0.9796,-0.9864,-0.9815,-0.989,-0.9941,-0.992,-1.0017,-1.0043,-1.01,-1.0209,-1.0259,-1.0235,-1.0427,-1.037,-1.0378,-1.0384,-1.0446,-1.0465,-1.0481,-1.0266,-1.0265,-1.0264,0,0,-0.9718,-0.9752,-0.9833,-0.987,-0.9924,-0.994,-0.9959,-1.0011,-1.0028,-1.0124,-1.011,-1.0171,-1.0286,-1.0327,-1.0363,-1.0498,-1.0486,-1.0519,-1.0585,-1.0648,-1.0663,-1.0677,-1.0727,-1.0744,-1.053,-1.053,-1.053,0,-0.9771,-0.9872,-0.9877,-0.9953,-0.9991,-0.9973,-1.0056,-1.0092,-1.0166,-1.0193,-1.0165,-1.0308,-1.0344,-1.0463,-1.0496,-1.0525,-1.0549,-1.0513,-1.066,-1.0674,-1.0687,-1.0735,-1.0753,-1.0534,-1.0533,-1.0533,-1.0533,0,-0.9935,-1.0006,-1.0065,-1.0134,-1.0179,-1.0259,-1.0276,-1.0322,-1.032,-1.0339,-1.0438,-1.048,-1.0552,-1.058,-1.058,-1.0699,-1.0683,-1.0657,-1.0608,-1.0709,-1.0754,-1.0772,-1.0539,-1.0538,-1.0537,-1.0536,0,0,-1.0092,-1.016,-1.0183,-1.0214,-1.0272,-1.0327,-1.0405,-1.0474,-1.0513,-1.0564,-1.0631,-1.0727,-1.0704,-1.0744,-1.0748,-1.0803,-1.0909,-1.0771,-1.0773,-1.0797,-1.1044,-1.1064,-1.1085,-1.09,-1.0903,-1.0906,-1.104,0,-1.022,-1.0357,-1.0362,-1.0487,-1.0553,-1.0536,-1.0604,-1.0648,-1.0667,-1.0727,-1.0749,-1.0818,-1.0781,-1.0805,-1.0858,-1.0885,-1.0959,-1.0875,-1.0964,-1.0968,-1.0953,-1.1108,-1.113,-1.1255,-1.1057,-1.106,-1.1062,0,-1.0389,-1.0443,-1.0574,-1.0622,-1.065,-1.0711,-1.0774,-1.0831,-1.088,-1.089,-1.0934,-1.093,-1.1012,-1.0957,-1.107,-1.1013,-1.1049,-1.1068,-1.1073,-1.1084,-1.1023,-1.1125,-1.1295,-1.1314,-1.109,-1.1088,-1.1086,0,-1.0491,-1.0597,-1.0689,-1.0716,-1.0774,-1.0817,-1.0844,-1.0889,-1.093,-1.0986,-1.1012,-1.1077,-1.1113,-1.1164,-1.1178,-1.1136,-1.1291,-1.1238,-1.1303,-1.1303,-1.1339,-1.1337,-1.1519,-1.1359,-1.1359,-1.1359,-1.1358,0,-1.0636,-1.0717,-1.0736,-1.0793,-1.0884,-1.0889,-1.0979,-1.1003,-1.1043,-1.1106,-1.1094,-1.1153,-1.1166,-1.1228,-1.1239,-1.1332,-1.1348,-1.136,-1.1363,-1.1362,-1.1361,-1.1388,-1.1381,-1.1364,-1.1362,-1.1361,-1.1361,0,-1.0767,-1.0782,-1.0882,-1.0927,-1.0941,-1.1006,-1.1046,-1.1101,-1.1118,-1.1197,-1.1216,-1.1243,-1.1315,-1.1333,-1.142,-1.1427,-1.1537,-1.153,-1.152,-1.152,-1.1586,-1.158,-1.1793,-1.1822,-1.1642,-1.1643,-1.1645,0,-1.0859,-1.0921,-1.0972,-1.1012,-1.104,-1.1105,-1.1145,-1.1153,-1.1196,-1.1256,-1.1305,-1.1375,-1.1432,-1.1548,-1.1577,-1.1643,-1.1639,-1.1708,-1.1649,-1.1646,-1.1642,-1.1638,-1.1645,-1.1721,-1.1723,-1.1724,-1.1725,0,-1.1021,-1.1025,-1.1084,-1.1145,-1.1193,-1.1242,-1.1289,-1.1323,-1.1337,-1.1386,-1.1459,-1.1503,-1.1589,-1.166,-1.1726,-1.1755,-1.1744,-1.1743,-1.1763,-1.1764,-1.1756,-1.1763,-1.1553,-1.1739,-1.1738,-1.1737,-1.1736,-1.1736,-1.1137,-1.1191,-1.1235,-1.1301,-1.1336,-1.138,-1.1434,-1.1457,-1.1517,-1.1587,-1.1588,-1.1667,-1.1714,-1.1802,-1.1834,-1.1897,-1.1876,-1.1903,-1.191,-1.1917,-1.1924,-1.1744,-1.1909,-1.1908,-1.1908,-1.1908,-1.1907,0,-1.13,-1.1327,-1.1387,-1.1452,-1.1503,-1.1485,-1.1535,-1.158,-1.165,-1.1694,-1.1749,-1.1832,-1.19,-1.1933,-1.2,-1.2045,-1.2041,-1.2062,-1.206,-1.2067,-1.1938,-1.1916,-1.2064,-1.2064,-1.2064,-1.2064,-1.2064,-1.2064,-1.1391,-1.1482,-1.1491,-1.1599,-1.1626,-1.1702,-1.1733,-1.1773,-1.1808,-1.1901,-1.1957,-1.1977,-1.2017,-1.2087,-1.2149,-1.2157,-1.2183,-1.2207,-1.2213,-1.2092,-1.2076,-1.2061,-1.204,-1.2212,-1.2212,-1.2337,-1.2338,-1.2339]},{"header":{"parameterUnit":"m.s-1","parameterCategory":1,"la1":30.2991,"la2":30.254,"lo1":-89.0895,"lo2":-89.0444,"dy":0.0017,"dx":0.0017,"nx":28,"ny":28,"refTime":"2023-08-31T03:00:00:Z","depth":0,"parameterNumber":3,"parameterNumberName":"V-component_of_WINDS"},"data":[0,0,0,0,0,0,0,0,0,0,0,0,0,0,0,0,0,0,0,0,0,0,0,0,0,0,0,0,0,0,0,0,0,0,0,0,0,0,0,0,0,0,0,0,0,0,0,0,0,0,0,0,0,0,0,0,0,0,-3.4812,-3.4813,0,-3.4828,-3.4828,-3.4828,-3.477,-3.4768,-3.4766,-3.4765,-3.4779,-3.4781,-3.4783,0,0,0,0,0,0,0,0,0,0,0,0,0,-3.4729,-3.4731,-3.4812,-3.4813,-3.4813,-3.4828,-3.4828,-3.4828,-3.477,-3.4768,-3.4766,-3.4764,-3.4778,-3.4781,-3.4783,0,0,0,0,0,0,0,0,0,0,0,0,0,-3.4757,-3.4732,-3.4812,-3.4786,-3.4783,-3.4828,-3.4828,-3.4829,-3.4771,-3.4768,-3.4765,-3.4763,-3.4778,-3.4781,-3.4784,-3.4854,0,0,-3.4793,-3.4794,0,0,0,0,0,0,0,0,-3.4756,-3.476,-3.4789,-3.4788,-3.4785,-3.4794,-3.4804,-3.4837,-3.4771,-3.4775,-3.4765,-3.4762,-3.4786,-3.4788,-3.4797,-3.4855,-3.4856,-3.4793,-3.4795,-3.4796,-3.4797,0,0,0,0,0,0,0,-3.4754,-3.4759,-3.4819,-3.479,-3.4787,-3.4772,-3.4773,-3.481,-3.4795,-3.4775,-3.4771,-3.4773,-3.4785,-3.4794,-3.4797,-3.4856,-3.4793,-3.4796,-3.4797,-3.4799,-3.4971,-3.4973,0,0,0,0,0,0,-3.4756,-3.4758,-3.4818,-3.4819,-3.4764,-3.4775,-3.4777,-3.4794,-3.4795,-3.4792,-3.4776,-3.4771,-3.479,-3.4793,-3.4797,-3.4878,-3.4796,-3.4799,-3.4801,-3.4968,-3.4971,-3.4974,0,0,0,0,0,0,-3.4754,-3.4762,-3.4817,-3.4787,-3.4793,-3.478,-3.48,-3.4796,-3.4805,-3.4795,-3.4792,-3.4788,-3.4788,-3.4793,-3.484,-3.4878,-3.48,-3.4803,-3.4965,-3.4969,-3.4973,-3.5043,0,0,0,0,0,0,-3.4752,-3.4762,-3.4789,-3.4789,-3.4795,-3.4861,-3.4802,-3.4798,-3.4811,-3.4804,-3.4806,-3.4804,-3.4787,-3.4836,-3.4843,-3.4881,-3.4805,-3.4961,-3.4967,-3.4971,-3.5037,-3.5049,-3.5059,0,0,0,0,0,-3.4749,-3.4808,-3.4791,-3.4798,-3.4829,-3.4864,-3.4867,-3.4846,-3.4814,-3.4841,-3.4834,-3.4804,-3.4873,-3.4841,-3.4849,-3.4888,-3.4959,-3.4965,-3.4971,-3.5032,-3.5047,-3.5059,0,0,0,0,0,0,-3.4813,-3.4808,-3.4788,-3.4849,-3.4857,-3.4854,-3.4887,-3.4863,-3.488,-3.4873,-3.4846,-3.4847,-3.4899,-3.4898,-3.4863,-3.4956,-3.491,-3.4918,-3.4954,-3.4968,-3.4978,-3.4977,-3.4808,0,0,0,0,0,-3.4835,-3.4864,-3.4857,-3.4911,-3.4916,-3.4901,-3.4915,-3.4898,-3.4906,-3.4909,-3.4905,-3.4913,-3.4936,-3.4952,-3.4973,-3.5037,-3.5036,-3.5068,-3.5079,-3.5088,-3.5095,-3.5127,-3.514,-3.4995,-3.4995,-3.4994,0,0,-3.4879,-3.4879,-3.4899,-3.4924,-3.4928,-3.4958,-3.4904,-3.4938,-3.4959,-3.4914,-3.4958,-3.4956,-3.4962,-3.5018,-3.5042,-3.5019,-3.5135,-3.5096,-3.5103,-3.5105,-3.5134,-3.5148,-3.516,-3.4999,-3.4998,-3.4997,0,0,-3.4974,-3.4978,-3.5023,-3.5028,-3.5035,-3.5024,-3.5035,-3.5035,-3.5032,-3.5076,-3.5042,-3.5066,-3.5107,-3.5113,-3.5121,-3.5217,-3.5189,-3.5225,-3.5282,-3.5313,-3.5325,-3.5335,-3.5367,-3.538,-3.5232,-3.5232,-3.5232,0,-3.5028,-3.5071,-3.5049,-3.5084,-3.5095,-3.5055,-3.5099,-3.5106,-3.5119,-3.5127,-3.5102,-3.5151,-3.5153,-3.5208,-3.5232,-3.524,-3.5251,-3.5224,-3.5325,-3.5335,-3.5344,-3.5375,-3.5387,-3.5236,-3.5236,-3.5235,-3.5235,0,-3.5136,-3.5167,-3.5202,-3.5216,-3.5231,-3.5271,-3.5253,-3.5271,-3.5253,-3.5244,-3.5289,-3.5289,-3.5309,-3.5321,-3.5304,-3.5374,-3.5359,-3.533,-3.5283,-3.5362,-3.5391,-3.5402,-3.5242,-3.5241,-3.5239,-3.5238,0,0,-3.5272,-3.5272,-3.5285,-3.529,-3.5295,-3.5318,-3.5355,-3.5375,-3.539,-3.54,-3.543,-3.5465,-3.5438,-3.5447,-3.543,-3.5458,-3.5532,-3.5424,-3.5424,-3.5443,-3.5607,-3.5628,-3.5642,-3.5514,-3.5516,-3.5518,-3.5606,0,-3.5364,-3.5428,-3.5408,-3.5473,-3.55,-3.5462,-3.5494,-3.55,-3.5493,-3.5514,-3.5506,-3.5531,-3.5494,-3.5499,-3.5525,-3.5517,-3.5564,-3.5511,-3.554,-3.5541,-3.5538,-3.5657,-3.568,-3.5763,-3.5617,-3.5619,-3.562,0,-3.5481,-3.5495,-3.5562,-3.5561,-3.5571,-3.5601,-3.5616,-3.5637,-3.5642,-3.5635,-3.5645,-3.5622,-3.5657,-3.5611,-3.5659,-3.5623,-3.5634,-3.5632,-3.5635,-3.5636,-3.5585,-3.566,-3.5789,-3.5801,-3.5638,-3.5636,-3.5635,0,-3.5571,-3.5608,-3.5652,-3.5658,-3.5657,-3.5679,-3.5679,-3.5682,-3.5694,-3.5708,-3.5715,-3.5732,-3.5742,-3.5755,-3.5737,-3.5705,-3.5786,-3.5739,-3.578,-3.5781,-3.5798,-3.5797,-3.593,-3.5808,-3.5808,-3.5807,-3.5807,0,-3.5675,-3.5717,-3.5692,-3.572,-3.5765,-3.5741,-3.5787,-3.5783,-3.5785,-3.581,-3.5779,-3.5803,-3.5778,-3.5799,-3.5785,-3.5825,-3.583,-3.5825,-3.582,-3.5827,-3.5827,-3.5832,-3.5826,-3.5811,-3.581,-3.5809,-3.5809,0,-3.5784,-3.5769,-3.5814,-3.581,-3.581,-3.5843,-3.5839,-3.5864,-3.5854,-3.5886,-3.5892,-3.5878,-3.5901,-3.5884,-3.5908,-3.5898,-3.5951,-3.5939,-3.5949,-3.5945,-3.5987,-3.5982,-3.6126,-3.6143,-3.6012,-3.6013,-3.6014,0,-3.5851,-3.5882,-3.5881,-3.5895,-3.5898,-3.5922,-3.5934,-3.5911,-3.5925,-3.5933,-3.5956,-3.5976,-3.5992,-3.6031,-3.6022,-3.6039,-3.6027,-3.6076,-3.6029,-3.6034,-3.6025,-3.6023,-3.6025,-3.6085,-3.6086,-3.6088,-3.6089,0,-3.597,-3.5961,-3.598,-3.5996,-3.6011,-3.6023,-3.6032,-3.6046,-3.6022,-3.6039,-3.6063,-3.6075,-3.6098,-3.6119,-3.6133,-3.6132,-3.6107,-3.6104,-3.6114,-3.612,-3.6124,-3.6121,-3.5973,-3.61,-3.6099,-3.6098,-3.6098,-3.6097,-3.6059,-3.6084,-3.6087,-3.6108,-3.6113,-3.6121,-3.6143,-3.6137,-3.6156,-3.6173,-3.6158,-3.6186,-3.6189,-3.6205,-3.6208,-3.6229,-3.6209,-3.6224,-3.6227,-3.6231,-3.6236,-3.6122,-3.6232,-3.6231,-3.6231,-3.6231,-3.6231,0,-3.6175,-3.6175,-3.6195,-3.6208,-3.6225,-3.6199,-3.6207,-3.6223,-3.6247,-3.6253,-3.6268,-3.6294,-3.6314,-3.6306,-3.6323,-3.6341,-3.6329,-3.6346,-3.6344,-3.6344,-3.6254,-3.6243,-3.6355,-3.6355,-3.6355,-3.6355,-3.6355,-3.6355,-3.6238,-3.6279,-3.627,-3.6312,-3.6311,-3.6337,-3.6344,-3.6351,-3.6355,-3.6386,-3.6402,-3.6397,-3.6396,-3.6413,-3.6429,-3.6426,-3.6433,-3.6454,-3.6447,-3.6363,-3.635,-3.6339,-3.6328,-3.6456,-3.6456,-3.6534,-3.6535,-3.6536]}]]